Location: Enborne
(51.3833°N, 1.3667°W)
Time: 17:17:51
(UTC+00:00)

Cosmos 1844 Rocket - Pass Details

Date: 18 January 2021
Orbit: 826 x 843 km, 71.0° (Epoch: 06 March)

Event Time Altitude Azimuth Distance (km) Brightness Sun altitude
Exits shadow 03:59:41 17° 132° (SE) 1,966 4.9 -36.9°
Drops below altitude 10° 04:00:57 10° 136° (SE) 2,433 5.4 -36.7°
Sets 04:03:24 0° 140° (SE) 3,360 6.1 -36.4°
